AirNav   Air Wisconsin pilot careers
 
 1573 users online  

72F Throckmorton Municipal Airport
Throckmorton, Texas, USA

GOING TO THROCKMORTON?


FAA INFORMATION EFFECTIVE 19 JULY 2018

Location

FAA Identifier: 72F
Lat/Long: 33-10-48.0150N / 099-08-59.1450W
33-10.800250N / 099-08.985750W
33.1800042 / -99.1497625
(estimated)
Elevation: 1273 ft. / 388 m (estimated)
Variation: 08E (1985)
From city: 1 mile NE of THROCKMORTON, TX
Time zone: UTC -5 (UTC -6 during Standard Time)
Zip code: 76483

Airport Operations

Airport use: Open to the public
Activation date: 05/1975
Control tower: no
ARTCC: FORT WORTH CENTER
FSS: FORT WORTH FLIGHT SERVICE STATION
NOTAMs facility: FTW (NOTAM-D service available)
Attendance: UNATNDD
Wind indicator: lighted
Segmented circle: no
Lights: SS-SR
Beacon: white-green (lighted land airport)
Operates sunset to sunrise.

Airport Communications

CTAF: 122.9

Nearby radio navigation aids

NDB name  Hdg/Dist  Freq  Var  ID
GRAHAM264/32.837107EGHX --. .... -..-

Airport Services

Parking: tiedowns
Airframe service: NONE
Powerplant service: NONE

Runway Information

Runway 17/35

Dimensions: 3723 x 60 ft. / 1135 x 18 m
Surface: asphalt, in poor condition
RWY HAS CONC & ASPH PATCHES WITH CRACKS AND LOOSE GRVL.
Weight bearing capacity: 
Single wheel: 12.0
Runway edge lights: low intensity
RUNWAY 17  RUNWAY 35
Latitude: 33-11.107167N33-10.493333N
Longitude: 099-08.983333W099-08.988167W
Elevation: 1273.0 ft.1264.0 ft.
Traffic pattern: leftleft
Markings: basic, in fair conditionNSTD, in fair condition
Runway end identifier lights: nono
Obstructions: 18 ft. road, 246 ft. from runway, 2:1 slope to clear
APCH SLOPE 42:1 TO DSPLCD THLD.
63 ft. trees, 1458 ft. from runway, 77 ft. left of centerline, 19:1 slope to clear
APCH SLOPE 31:1 AT DSPLCD THLD.

Airport Ownership and Management from official FAA records

Ownership: Publicly-owned
Owner: CITY OF THROCKMORTON
P.O. BOX 640
THROCKMORTON, TX 76483
Phone 940-849-4411
Manager: WILLIAM CARROLL
P.O. BOX 640
THROCKMORTON, TX 76483
Phone 940-849-4411
EMERGENCY PHONE: (940) 849-9421 (SHERIFF).

Airport Operational Statistics

Aircraft operations: 65/year *
100% transient general aviation
* for 12-month period ending 05 April 2018

Additional Remarks

RWY 17 HAS NSTD DISPLACED THLD LIGHTS.
RWY 35 DOES NOT HAVE DISPLACED THLD LIGHTS.

Instrument Procedures

There are no published instrument procedures at 72F.

Some nearby airports with instrument procedures:

KONY - Olney Municipal Airport (19 nm NE)
T23 - Albany Municipal Airport (28 nm S)
15F - Haskell Municipal Airport (29 nm W)
60F - Seymour Municipal Airport (29 nm N)
KRPH - Graham Municipal Airport (30 nm E)
 
Loc | Ops | Rwys | IFR | FBO | Links
Com | Nav | Svcs | Stats | Notes


 
Area around 72F (Throckmorton Municipal Airport)
 
Road maps at: MapQuest Bing Google
 
Aerial photo
No photo
 
Sectional chart

 
Airport distance calculator
Flying to Throckmorton Municipal Airport? Find the distance to fly.

From to 72F

Sunrise and sunset
Times for 23-Jul-2018
 Local
(UTC-5)
 Zulu
(UTC)
Morning civil twilight06:1711:17
Sunrise06:4411:44
Sunset20:4201:42
Evening civil twilight21:0902:09

Current date and time
Zulu (UTC)  23-Jul-2018 16:04:18
Local (UTC-5)  23-Jul-2018 11:04:18
 
METAR
KRPH 
30nm E 
231535Z AUTO 29006KT 10SM CLR 34/14 A2992 RMK AO2 T03410138
KBKD 
31nm SE 
231555Z AUTO 30008G14KT 5SM HZ CLR 35/10 A2994 RMK AO2 T03500104
KETN 
49nm S 
231555Z AUTO 28009KT 10SM CLR 36/13 A2995 RMK AO2 T03560128
KGZN 
49nm S 
231540Z AUTO 28009G17KT 250V310 10SM CLR 36/12 A2997 RMK AO2
TAF
NOTAMs
Click for the latest NOTAMs
NOTAMs are issued by the DoD/FAA and will open in a separate window not controlled by AirNav.

 

 
 

Would you like to see your business listed on this page?

 If your business provides an interesting product or service to pilots, flight crews, aircraft, or users of the Throckmorton Municipal Airport, you should consider listing it here.  To start the listing process, click on the button below
 
Add a business
 

Other Pages about Throckmorton Municipal Airport

Update a link
 
Copyright © AirNav, LLC. All rights reserved. Privacy Policy  Contact